Dewpoint
47 47 47 47 47 47 47 47 48 48 48 48 48 48 48 48 48 48 48 48 48 48 48 48 48 48 48 48 48 48 48 48 48 48 48 48 48 47 47 47 47 46 44 42 40 37 35 30 24 18 18 19 20 21 22 23 23 24 26 31 35 39 42 47 50 51 52 52 52 53 53 52 52 52 52 52 52 52 52 52 52 53 53 53 53 53 53 53 53 53 53 53 53 53 53 53 53 53 53 54 54 54 54
47 47 47 47 47 47 47 47 47 47 47 47 47 48 48 48 48 48 48 48 48 48 48 48 48 48 47 47 47 47 47 47 47 47 47 47 47 47 47 46 46 45 43 42 39 36 33 28 22 18 17 19 20 22 22 23 23 24 27 30 34 38 43 48 50 51 51 51 52 52 52 52 52 52 52 52 52 52 52 52 52 52 52 52 52 52 52 53 53 53 53 53 53 53 53 53 53 53 53 53 53 53 53
47 47 47 47 47 47 47 47 47 47 47 47 47 47 47 47 47 48 47 47 47 47 47 47 47 47 47 47 47 47 47 47 47 47 47 47 47 46 46 46 45 44 42 41 39 36 33 29 23 19 18 19 21 22 23 22 22 23 27 30 34 39 44 48 49 50 51 51 51 51 51 51 51 51 51 51 51 51 51 51 51 51 51 51 52 52 52 52 52 52 52 53 53 53 53 52 52 53 53 53 53 53 53
46 47 47 46 46 47 47 47 47 47 47 47 47 47 47 47 47 47 47 47 47 47 47 47 47 47 47 47 46 46 46 46 46 46 46 46 46 46 45 45 44 43 42 40 38 35 29 28 24 20 18 19 21 22 24 23 22 23 26 29 34 40 46 48 49 50 50 50 50 51 51 51 51 51 51 51 51 51 51 51 51 51 51 51 51 51 51 52 52 52 52 52 52 53 52 52 52 52 52 52 52 52 52
46 46 46 46 46 46 46 46 47 47 47 47 47 47 47 47 47 47 47 47 47 47 47 47 47 47 47 46 46 46 46 46 46 46 46 45 45 45 45 44 43 42 41 40 38 34 26 26 23 20 19 19 20 22 24 25 24 24 26 29 35 41 47 48 49 49 49 50 50 50 50 50 50 50 50 50 50 50 50 50 50 50 50 50 51 51 51 51 51 51 52 52 52 52 52 52 52 52 52 52 52 52 52
46 46 46 46 46 46 46 46 46 47 47 47 47 47 47 47 47 47 47 47 47 47 47 46 46 46 46 46 46 45 45 45 45 45 45 45 44 44 44 43 42 41 40 39 38 35 29 24 21 20 20 20 20 21 23 24 24 23 24 30 36 42 46 47 48 49 49 49 49 49 50 50 50 50 49 49 49 49 49 50 50 50 50 50 50 50 50 51 51 51 51 51 51 52 52 52 52 52 52 52 52 52 52
46 46 46 46 46 46 46 46 46 46 46 46 46 46 46 46 46 46 47 47 46 46 46 46 45 45 45 45 45 45 45 44 44 44 44 44 43 43 43 42 41 40 39 38 37 34 29 24 21 21 20 20 20 21 21 22 22 22 24 30 38 43 46 47 47 48 49 49 49 49 49 49 49 49 49 49 49 49 49 49 49 49 49 49 49 49 50 50 50 50 51 51 51 51 51 51 51 52 52 52 52 52 52
45 45 45 45 45 45 45 45 45 46 46 46 46 46 46 46 46 46 46 46 46 46 45 45 45 44 43 43 43 43 43 43 43 43 43 43 43 42 42 41 40 39 38 37 36 34 31 26 23 22 21 21 20 21 21 20 20 21 25 32 38 43 45 46 47 47 48 48 48 48 49 49 49 48 48 48 48 49 49 49 49 49 49 49 49 49 49 49 49 50 50 50 50 50 51 51 51 51 51 51 51 51 51
45 45 45 45 45 45 45 45 45 45 45 45 46 46 46 46 46 46 46 45 45 45 45 44 44 43 42 42 42 42 42 42 42 43 42 42 42 42 41 40 39 38 37 35 35 33 32 27 24 23 21 21 21 21 23 20 20 21 24 33 38 42 45 46 47 47 47 48 48 48 48 48 48 48 48 48 48 48 48 48 48 48 48 48 48 48 48 49 49 49 49 49 50 50 50 50 50 51 51 51 51 51 51
44 44 44 45 45 45 45 45 45 45 45 45 45 45 45 45 45 45 45 45 45 44 44 44 43 42 42 41 41 41 41 41 42 42 42 41 41 41 40 39 38 36 35 34 33 33 31 26 24 23 21 21 21 22 24 21 21 22 24 34 40 42 44 45 46 47 47 47 47 47 48 47 47 47 47 47 47 47 48 48 48 48 48 48 48 48 48 48 48 48 49 49 49 49 49 49 50 50 50 50 51 51 51
43 43 44 44 44 44 44 44 44 44 44 45 45 45 45 44 44 44 44 44 44 44 43 43 42 42 41 40 40 40 40 40 40 40 40 40 40 39 39 38 37 35 33 33 32 31 30 26 24 22 21 21 22 22 23 22 21 23 26 35 40 42 44 45 46 46 47 47 47 47 47 47 47 47 47 47 47 47 47 47 47 47 47 47 47 47 48 48 48 48 48 48 48 49 49 49 49 49 50 50 50 50 51
42 42 43 43 43 43 43 43 43 44 44 44 44 44 44 44 44 43 43 43 43 43 42 42 41 40 39 38 38 38 38 39 39 39 39 39 39 38 38 37 35 34 33 31 30 29 28 25 23 22 22 21 21 21 22 21 21 23 28 36 40 42 43 44 45 46 46 47 47 47 47 47 46 46 47 47 47 47 47 47 47 47 47 47 47 47 47 47 48 48 48 48 48 48 48 49 49 49 49 50 50 50 50
42 42 42 42 42 42 42 42 42 43 43 43 43 43 43 43 43 43 42 42 42 42 42 41 40 39 38 37 37 37 37 37 38 38 38 38 38 38 37 36 34 33 31 30 28 27 25 23 22 23 23 22 21 20 22 21 21 24 30 38 41 42 43 44 45 45 46 46 46 46 46 46 46 46 46 46 46 46 46 46 46 46 46 47 47 47 47 47 47 47 48 48 48 48 48 48 49 49 49 49 49 49 50
40 41 42 42 41 41 41 41 42 42 42 42 42 42 42 42 42 42 42 42 41 41 40 40 39 38 37 36 35 34 35 35 36 37 37 37 37 37 36 34 33 32 30 28 25 22 21 21 21 22 22 22 20 20 23 22 21 25 33 38 40 42 42 43 44 45 45 46 46 46 45 45 45 45 46 46 46 46 46 46 46 46 46 46 46 47 47 47 47 47 47 47 47 47 48 48 48 48 49 49 49 49 49
39 39 40 40 40 40 40 40 40 41 41 41 42 42 42 42 42 41 41 41 40 40 39 38 38 36 35 34 33 32 32 33 33 34 35 35 35 35 34 33 32 30 28 24 21 19 19 20 21 21 20 20 20 20 21 21 22 27 35 38 40 41 42 43 44 44 45 45 45 45 45 45 45 45 45 45 46 46 46 46 46 46 46 46 46 46 47 47 47 47 47 47 47 47 47 47 48 48 48 48 48 49 49
38 39 39 39 39 39 39 39 39 39 40 40 40 40 40 40 40 40 40 39 39 38 38 37 36 34 33 32 31 30 29 29 30 31 33 33 33 33 33 31 30 28 25 21 19 18 19 19 20 21 20 20 19 19 20 21 24 29 36 38 40 41 42 42 43 44 44 44 45 44 44 44 44 45 45 45 45 45 45 45 45 45 45 46 46 46 46 47 47 47 47 47 47 47 47 47 47 47 48 48 48 48 49
38 38 38 38 38 38 38 38 37 38 38 38 39 39 39 39 39 39 38 38 38 37 36 35 34 33 32 30 29 27 23 23 24 26 29 31 32 32 30 29 28 25 21 19 18 18 19 19 20 20 20 20 19 18 20 21 25 31 36 38 39 40 41 42 43 43 44 44 44 44 44 44 44 44 44 45 45 45 45 45 45 45 45 45 46 46 46 46 46 46 47 47 47 47 47 47 47 47 47 47 48 48 48
36 36 36 36 37 38 37 36 36 35 36 37 37 37 37 37 37 37 37 37 36 35 34 33 33 31 30 28 25 21 18 16 16 18 23 27 29 29 28 27 25 23 19 18 18 18 19 19 19 19 19 18 18 18 20 21 26 32 36 38 39 40 41 42 42 43 43 44 44 44 44 44 44 44 44 44 44 44 44 45 45 45 45 45 46 46 46 46 46 46 46 46 46 46 46 47 47 47 47 47 47 47 48
35 35 34 34 35 35 35 35 34 33 33 33 34 35 35 35 35 35 35 35 34 33 33 31 30 29 28 26 20 16 14 13 13 14 15 20 23 25 25 23 22 20 17 18 19 19 19 19 19 18 18 18 18 19 21 23 27 33 36 38 39 40 41 41 42 42 43 43 43 43 44 44 44 44 44 44 44 44 44 44 44 45 45 45 45 46 46 46 46 46 46 46 46 46 46 46 46 46 47 47 47 47 47
32 32 32 31 32 32 32 32 32 31 30 30 30 31 33 33 33 32 32 32 32 31 30 29 27 25 25 21 16 12 12 12 12 12 13 16 19 20 20 19 19 18 17 19 20 20 20 19 18 18 18 18 18 19 20 23 28 33 36 38 39 40 40 41 42 42 43 43 43 43 43 43 43 43 43 43 43 44 44 44 44 44 45 45 45 45 45 45 45 45 46 46 46 46 46 46 46 46 46 46 47 47 47
24 24 24 24 24 25 25 26 27 28 28 27 26 24 25 26 27 27 27 26 27 27 27 24 20 17 17 15 13 11 12 12 13 13 13 15 17 18 17 18 17 17 18 20 20 20 21 20 18 18 19 18 19 19 19 24 29 33 35 37 38 39 40 40 41 42 42 42 43 43 43 43 43 43 43 43 43 43 43 44 44 44 44 45 45 45 45 45 45 45 45 45 45 45 45 46 46 46 46 46 46 46 47
16 15 15 15 15 16 16 19 21 24 25 25 24 21 17 17 19 20 20 19 19 20 20 19 15 11 11 12 12 12 13 13 13 13 13 14 15 16 17 18 18 19 20 21 21 20 20 20 18 18 19 18 18 18 18 25 29 32 34 36 37 38 39 40 41 41 42 42 42 43 43 43 43 43 42 42 43 43 43 43 44 44 44 44 44 45 45 45 45 45 45 45 45 45 45 45 45 46 46 46 46 46 46
15 14 15 12 12 12 14 15 19 22 24 23 22 19 15 14 15 16 16 15 14 13 13 13 11 11 11 11 11 12 12 13 13 12 12 13 14 15 17 19 20 20 20 21 20 20 20 19 18 18 18 18 18 17 18 25 29 32 33 35 36 37 38 39 40 41 41 42 42 42 43 43 42 42 42 42 42 42 43 43 43 43 44 44 44 44 44 44 45 45 45 45 45 45 45 45 45 45 45 46 46 46 46
15 14 13 11 11 12 14 15 18 20 21 19 17 15 14 14 15 14 14 13 12 11 11 11 11 11 11 11 12 12 13 14 14 13 13 13 15 16 18 19 19 20 20 21 20 20 20 19 18 18 18 18 18 17 18 25 29 31 33 34 35 36 37 38 39 40 41 41 42 42 42 42 42 42 42 42 42 42 42 42 43 43 43 43 43 44 44 44 44 44 44 44 44 45 45 45 45 45 45 46 46 46 46
14 13 12 11 12 13 14 16 18 19 19 18 16 15 13 15 15 15 13 12 11 11 11 11 11 11 12 12 12 13 14 14 14 14 15 15 16 17 18 18 18 19 20 20 20 20 19 19 18 18 17 18 17 16 18 24 28 30 31 33 34 35 36 38 38 39 40 41 41 42 42 42 42 42 42 42 42 42 42 42 42 43 43 43 43 43 44 44 44 44 44 44 44 44 44 45 45 45 45 45 45 46 46
14 14 13 14 15 15 15 17 19 20 20 18 16 15 14 14 14 14 13 12 11 11 11 12 12 12 13 13 13 14 14 15 15 15 16 16 17 17 18 18 18 19 20 20 20 20 19 19 18 18 17 16 16 16 18 24 27 29 30 31 33 34 35 36 37 38 39 40 40 41 41 41 42 42 42 42 42 42 42 42 42 42 42 42 43 43 43 44 44 44 44 44 44 44 44 44 45 45 45 45 45 45 45
15 15 15 16 18 18 15 16 17 18 17 17 15 14 14 13 12 12 11 11 11 11 12 13 13 13 14 15 15 14 15 17 18 17 17 18 18 19 18 18 18 18 18 20 20 20 20 20 19 18 17 16 15 15 16 22 25 27 29 30 32 33 34 35 36 37 38 39 40 40 40 41 41 41 41 42 42 42 42 42 42 42 42 42 42 42 43 43 43 44 44 44 44 44 44 44 44 44 45 45 45 45 45
15 14 14 15 16 15 14 15 15 15 15 16 15 14 14 13 11 10 10 10 11 12 12 13 14 15 16 17 17 16 16 18 19 19 18 18 19 19 19 18 17 17 17 19 20 19 20 20 19 17 16 15 15 15 15 20 24 26 28 29 31 32 33 34 34 36 37 38 39 39 39 40 40 40 41 41 41 42 42 42 42 42 42 42 42 42 42 43 43 43 44 44 44 44 44 44 44 44 44 44 44 44 44
15 14 13 14 14 12 13 14 14 14 14 15 14 13 12 12 11 10 10 10 10 11 11 12 14 16 19 17 17 17 17 17 17 17 18 18 19 19 19 18 18 17 18 18 18 18 19 19 18 17 16 15 15 15 15 18 22 26 27 29 30 31 32 33 33 35 36 37 38 38 38 39 39 39 40 40 41 41 42 42 42 42 42 42 42 42 42 43 43 43 43 43 43 43 43 43 44 44 44 44 44 44 44
15 14 14 14 13 12 12 14 14 13 13 13 13 11 11 11 11 10 9 9 10 11 11 13 15 17 21 19 18 16 16 17 17 17 19 19 19 20 20 19 18 17 17 17 17 19 19 19 19 18 18 16 16 16 15 16 20 25 27 28 29 30 31 32 33 34 35 36 37 38 38 38 38 39 39 39 40 40 41 41 41 42 42 42 42 42 42 42 43 43 43 43 43 43 43 43 43 43 43 44 44 44 44
15 14 14 14 13 12 12 13 13 12 13 13 12 11 11 11 10 10 10 10 10 11 13 14 15 16 19 18 17 17 18 17 17 18 20 20 20 20 19 19 17 17 16 17 18 19 20 20 20 20 19 18 17 15 15 15 19 23 26 27 28 29 29 31 32 33 34 35 36 37 37 38 38 38 39 39 39 40 40 41 41 41 41 41 41 42 42 42 42 42 42 42 42 42 42 42 43 43 43 43 44 44 44
15 14 13 13 12 12 12 12 12 12 13 12 11 11 11 12 11 11 11 11 11 11 12 13 13 14 15 15 15 15 17 17 16 17 20 20 20 19 19 18 17 17 17 18 18 18 19 19 20 20 20 18 17 16 16 16 17 20 24 26 27 28 29 30 31 32 33 34 35 36 36 37 38 38 38 38 39 39 39 40 40 41 41 41 41 41 42 42 42 42 42 42 42 42 42 42 42 43 43 43 44 44 44
15 13 13 12 12 13 14 13 12 12 13 12 12 11 12 13 13 12 12 12 14 15 15 14 14 14 15 14 15 15 16 17 17 16 19 20 20 19 19 18 17 17 18 18 17 18 18 18 17 17 18 18 17 17 16 16 16 18 21 24 26 27 28 29 30 31 32 33 33 34 35 36 37 37 38 38 38 38 39 39 40 40 41 41 41 41 41 41 42 42 42 42 42 42 42 42 42 43 43 43 43 44 44
15 13 13 13 13 13 14 12 12 12 14 13 13 13 14 15 15 14 13 14 15 15 16 15 15 15 15 14 15 16 16 17 17 16 16 18 18 19 19 18 18 18 18 17 17 17 18 17 16 16 16 16 16 16 16 16 17 17 17 21 24 26 27 28 29 29 30 31 32 33 34 35 36 36 37 37 38 38 38 39 39 40 40 40 41 41 41 41 41 41 41 42 42 42 42 42 42 43 43 43 43 43 43
15 14 14 13 13 13 14 13 13 13 13 13 14 15 16 16 15 15 15 15 15 15 15 15 15 15 15 15 15 16 18 18 18 18 16 17 18 19 19 18 17 17 17 17 16 17 17 17 17 16 16 15 15 15 16 17 17 16 15 20 23 25 27 27 27 28 28 29 30 31 33 33 34 35 35 36 37 38 38 38 39 39 40 40 40 40 41 41 41 41 41 42 42 42 42 42 42 42 42 42 42 42 42
16 15 14 14 13 13 14 13 12 13 13 13 15 17 18 16 15 14 13 14 14 14 15 16 16 16 16 17 17 17 19 18 18 17 16 17 18 19 19 18 17 17 17 17 17 18 18 17 17 17 16 15 15 15 16 17 17 16 16 18 20 22 24 25 25 26 26 27 29 30 31 32 33 33 34 35 36 37 38 38 38 39 39 40 40 40 40 40 41 41 41 41 42 42 42 42 42 42 42 42 42 42 42
16 15 15 14 14 13 13 12 13 14 15 14 14 15 15 14 13 12 12 14 15 15 15 15 16 16 16 15 15 16 16 16 16 15 15 15 16 17 17 17 17 18 17 17 18 18 18 17 17 17 17 16 16 16 16 17 17 17 17 18 18 19 20 21 22 23 25 26 27 28 29 30 31 32 33 34 35 36 37 38 38 38 39 39 39 39 40 40 41 41 41 41 42 42 42 42 42 42 42 41 41 41 42
16 15 15 15 15 15 15 13 14 15 15 14 13 13 13 12 12 12 12 14 15 15 15 13 14 15 16 15 14 15 17 17 16 16 15 15 15 15 15 16 17 17 17 18 18 18 18 17 17 17 17 17 17 17 17 17 17 18 18 18 17 17 17 18 19 20 23 25 26 27 28 29 29 31 32 33 34 35 36 37 38 38 38 39 39 39 39 40 40 41 41 41 42 42 42 42 42 41 41 41 41 41 41
16 15 15 15 15 16 15 14 14 15 14 13 13 13 13 12 12 13 13 14 14 15 15 14 14 15 15 15 15 15 18 18 17 16 16 16 15 15 15 15 16 16 16 18 18 18 18 17 17 17 17 17 17 17 18 17 17 17 18 18 18 17 16 17 18 19 20 22 24 25 26 27 29 30 31 33 33 34 35 36 37 37 38 38 38 39 39 40 40 41 41 41 41 41 42 41 41 41 41 41 41 41 41
17 16 15 15 15 15 15 15 15 14 13 12 12 13 14 13 12 12 13 13 14 15 16 15 14 13 13 14 15 16 17 18 17 16 16 16 16 15 15 16 16 15 16 17 17 17 17 17 17 17 17 17 17 17 17 17 17 17 17 18 17 17 17 18 18 19 18 18 20 23 26 27 28 29 30 31 33 33 34 35 35 36 36 37 38 38 39 40 40 41 41 41 41 41 41 41 41 41 40 40 41 41 41
17 17 16 15 15 15 15 16 15 14 13 12 12 13 14 13 12 12 12 13 14 15 18 19 16 13 12 14 15 15 16 17 18 18 17 17 17 17 16 16 16 16 16 17 17 16 16 17 17 17 17 17 17 18 18 17 17 17 17 17 17 17 19 20 20 19 17 17 19 21 24 27 28 29 29 30 32 33 33 33 34 34 35 36 37 38 38 39 40 40 41 41 41 41 41 41 41 41 41 41 41 41 41
18 18 17 16 15 16 17 17 16 15 13 12 12 12 13 13 12 12 13 14 15 16 17 19 18 16 14 14 15 15 16 17 17 18 18 18 18 18 18 17 17 16 17 18 17 16 16 17 17 17 17 17 18 18 18 18 18 18 18 17 17 17 19 20 20 19 20 19 20 21 24 26 27 28 29 29 30 31 32 32 33 33 33 35 36 37 38 39 40 40 41 41 41 41 41 41 41 41 41 41 41 41 41
19 18 17 16 16 16 17 17 17 15 14 13 13 13 12 12 12 13 14 16 16 16 16 18 18 18 18 16 15 15 16 16 17 18 18 18 18 19 19 18 18 18 18 18 17 16 16 17 17 18 19 18 17 18 18 19 19 18 18 17 17 17 19 20 21 21 23 22 22 22 23 25 27 27 28 29 29 30 30 30 31 31 33 34 35 37 38 38 39 40 40 41 41 41 41 41 41 41 41 41 41 41 41
19 18 17 16 16 16 17 17 17 16 15 14 13 13 12 12 13 15 15 16 16 15 14 16 17 18 19 16 15 15 15 15 16 17 18 20 20 20 20 19 19 18 17 17 17 16 16 16 18 19 19 18 17 17 18 18 19 19 19 17 16 17 20 22 23 24 24 24 24 24 24 24 25 25 27 27 28 28 28 29 29 30 32 33 35 36 37 38 38 39 39 40 40 41 41 41 41 41 41 41 41 41 41
18 18 16 16 16 16 17 17 18 17 15 14 14 13 13 12 13 15 15 15 15 14 13 15 17 20 18 17 16 15 15 15 15 15 18 21 21 19 19 18 18 17 17 17 16 16 16 17 18 18 18 17 17 17 17 18 19 19 19 18 17 17 22 23 24 24 24 25 24 23 24 24 23 23 24 24 24 24 26 27 28 29 31 33 34 35 36 37 37 38 38 39 40 40 41 41 41 41 41 41 41 41 41
18 17 16 16 16 16 17 17 18 18 15 15 15 14 13 13 14 15 15 15 15 15 14 15 16 19 20 20 18 16 16 16 17 17 19 19 19 19 19 17 17 16 16 16 16 16 17 18 18 17 16 16 17 17 17 19 19 19 17 17 16 17 22 23 24 24 24 24 24 23 23 22 22 22 22 20 20 20 22 25 27 29 30 31 33 34 35 35 36 37 38 38 39 39 40 41 41 41 41 41 41 41 41
18 17 16 16 16 16 17 17 17 17 15 15 15 14 13 13 13 13 14 15 15 15 15 16 17 16 17 20 20 18 18 18 18 18 17 17 16 17 19 18 17 16 16 15 15 16 17 17 17 16 16 18 18 18 18 19 18 16 14 14 15 18 22 22 23 23 23 21 21 22 23 22 22 22 20 19 17 18 21 24 26 28 29 30 31 33 33 34 34 35 37 38 38 39 40 40 41 41 41 41 41 41 41
19 18 16 15 15 16 16 17 17 16 15 15 14 14 14 13 13 14 14 14 14 13 14 17 16 15 16 17 17 18 18 18 17 16 15 15 15 15 17 17 16 15 15 15 16 17 18 17 17 17 17 18 18 18 18 17 16 14 12 13 14 16 19 20 21 21 21 19 19 20 23 22 22 21 19 18 17 17 19 20 23 25 27 29 30 31 32 33 33 34 35 37 38 38 39 40 40 41 41 41 41 41 41
20 19 16 16 15 16 16 16 17 17 15 15 15 15 14 14 15 15 16 15 14 14 15 15 16 16 16 15 15 16 16 17 17 16 15 14 13 13 14 14 14 14 14 15 16 17 19 17 17 16 17 17 18 17 17 15 14 13 12 13 13 14 16 17 19 20 19 17 19 21 22 22 21 20 19 18 18 18 19 19 19 21 24 27 29 30 31 31 32 33 34 36 37 38 38 39 39 40 40 41 41 41 41
19 18 17 16 16 16 16 16 17 17 15 15 15 15 15 15 15 15 16 16 16 17 15 15 16 17 15 15 14 14 15 17 17 16 15 13 12 11 11 12 12 12 12 14 15 17 17 16 16 16 17 17 17 16 15 14 14 13 13 13 13 13 15 16 17 19 18 20 20 21 20 21 20 20 19 19 19 19 19 18 17 19 23 24 26 27 28 29 31 32 33 34 36 37 38 38 39 39 39 40 40 41 41
19 18 18 16 16 16 16 16 16 16 16 16 16 16 17 17 16 16 16 15 16 17 15 14 14 15 15 14 13 13 15 16 17 16 13 12 11 11 11 11 11 11 11 11 14 15 16 16 16 16 17 17 16 15 15 14 14 15 14 14 14 14 15 15 15 17 19 20 20 20 19 20 20 20 19 20 20 19 20 18 18 18 20 20 20 22 23 25 29 31 32 33 34 35 36 37 38 38 39 39 40 40 41
19 19 18 17 16 16 16 16 16 16 18 16 16 15 15 15 15 15 16 16 17 18 16 14 13 13 15 15 15 15 18 16 16 15 12 11 12 12 13 12 11 10 9 8 10 11 14 14 16 18 18 17 15 15 14 14 14 15 15 15 15 15 15 15 15 15 18 19 20 20 20 21 22 22 21 21 20 19 19 18 18 18 18 19 20 22 24 26 28 29 32 33 33 34 35 36 37 38 38 39 40 40 41
20 19 18 17 17 16 16 16 16 16 17 16 15 15 15 15 15 15 16 17 18 18 17 16 15 13 12 14 15 17 20 18 17 15 14 13 13 12 12 11 10 8 7 7 7 8 9 11 13 14 15 15 14 13 13 13 13 14 15 15 15 15 15 15 15 15 15 17 19 20 20 21 22 22 21 19 18 17 17 18 17 16 16 19 21 22 23 25 28 30 31 33 33 34 34 35 36 37 38 39 39 40 41
19 18 18 17 17 17 16 16 16 16 17 16 15 14 14 15 15 15 15 15 16 17 16 18 18 16 11 12 12 14 16 17 17 16 15 15 14 12 10 9 8 8 8 8 6 5 3 5 6 8 11 11 12 12 12 12 13 13 14 15 15 15 16 16 15 14 14 15 17 18 18 20 20 21 21 19 17 16 18 17 17 17 17 18 19 20 21 24 27 29 30 31 32 33 33 34 35 36 37 38 39 40 40
19 19 17 17 17 17 16 17 16 16 16 16 15 15 14 14 15 14 14 15 15 15 15 15 15 15 12 11 11 11 11 15 17 16 16 15 15 13 11 11 10 10 8 7 5 3 2 6 8 9 9 10 10 11 11 11 11 11 13 14 14 14 15 14 14 13 13 13 13 14 16 16 17 18 19 18 17 17 18 16 15 15 16 18 20 22 24 26 27 28 27 28 29 30 31 33 35 36 37 38 39 40 40
20 20 20 19 18 17 17 17 16 16 16 16 15 15 14 14 14 15 15 15 15 15 15 14 14 14 14 12 11 11 11 12 15 16 15 15 16 16 14 12 10 7 6 4 3 4 6 9 9 8 8 9 9 9 9 10 11 12 14 14 13 13 12 13 13 12 12 13 13 13 14 15 16 17 17 17 17 15 15 15 15 16 18 19 20 22 23 25 25 24 24 25 26 29 30 33 34 36 37 38 39 40 40
20 20 20 20 19 17 17 17 17 16 16 16 15 15 14 14 14 15 15 15 14 15 14 13 13 13 15 14 12 11 11 11 13 16 16 16 17 19 19 16 13 11 9 7 7 7 9 10 9 7 7 9 10 11 10 11 12 12 13 12 11 12 13 12 11 12 12 12 13 13 14 15 15 15 15 16 15 15 16 16 17 17 18 18 18 19 20 21 23 24 24 24 24 26 29 32 34 36 37 38 38 39 40
20 20 20 21 20 18 17 17 17 16 16 16 15 15 14 14 13 14 15 14 14 14 16 15 13 13 14 14 14 13 11 11 11 13 16 16 17 19 21 18 16 15 15 13 12 11 11 11 10 8 7 8 9 11 12 12 12 11 11 10 10 10 11 11 11 12 12 12 13 13 13 14 15 15 15 15 15 15 16 17 17 17 17 17 17 18 19 21 23 24 24 25 25 27 30 32 33 35 37 38 38 39 40
20 20 20 20 19 18 17 17 17 17 16 17 16 15 14 14 13 13 14 15 16 16 15 15 14 13 14 15 14 13 12 11 11 11 13 15 16 18 20 19 18 18 18 17 15 14 14 12 11 11 10 8 8 9 11 11 10 10 10 9 10 10 11 12 13 14 14 13 13 13 12 13 14 15 14 14 14 14 15 15 16 16 16 16 17 18 19 22 24 25 26 27 28 29 29 31 32 34 36 37 38 39 39
21 20 19 19 19 18 17 17 17 16 16 17 16 15 14 13 13 13 14 17 19 18 16 15 14 14 14 15 14 14 13 12 12 12 12 13 13 14 16 17 17 17 18 18 17 17 16 15 15 14 12 10 9 8 9 10 11 11 10 10 9 10 10 12 12 13 13 13 13 13 12 12 13 13 13 12 12 13 13 13 14 15 16 17 17 18 19 20 21 22 24 25 27 29 29 30 32 33 35 36 38 38 39
22 21 19 19 18 18 17 16 16 16 16 17 16 15 14 14 13 13 13 15 18 18 17 15 14 14 14 14 15 15 14 13 13 13 14 13 12 12 14 15 15 16 17 17 17 16 16 16 16 16 15 13 11 10 8 9 10 11 10 11 10 10 10 11 11 11 11 11 11 12 12 12 12 12 12 13 13 13 13 14 15 15 16 17 17 18 19 19 19 20 20 22 25 27 28 29 31 32 34 36 37 38 39